Year,Month,Day,Hour,Minute,Value (Times are PST for temperature in C)
2017,08,09,00,00,19.30
2017,08,09,00,01,19.30
2017,08,09,00,02,19.30
2017,08,09,00,03,19.30
2017,08,09,00,04,19.30
2017,08,09,00,05,19.30
2017,08,09,00,06,19.20
2017,08,09,00,07,19.20
2017,08,09,00,08,19.20
2017,08,09,00,09,19.20
2017,08,09,00,10,19.20
2017,08,09,00,11,19.20
2017,08,09,00,12,19.20
2017,08,09,00,13,19.10
2017,08,09,00,14,19.10
2017,08,09,00,15,19.00
2017,08,09,00,16,18.90
2017,08,09,00,17,18.90
2017,08,09,00,18,18.80
2017,08,09,00,19,18.70
2017,08,09,00,20,18.70
2017,08,09,00,21,18.60
2017,08,09,00,22,18.50
2017,08,09,00,23,18.40
2017,08,09,00,24,18.40
2017,08,09,00,25,18.30
2017,08,09,00,26,18.20
2017,08,09,00,27,18.10
2017,08,09,00,28,18.00
2017,08,09,00,29,17.90
2017,08,09,00,30,17.90
2017,08,09,00,31,17.80
2017,08,09,00,32,17.70
2017,08,09,00,33,17.70
2017,08,09,00,34,17.70
2017,08,09,00,35,17.60
2017,08,09,00,36,17.60
2017,08,09,00,37,17.60
2017,08,09,00,38,17.70
2017,08,09,00,39,17.70
2017,08,09,00,40,17.80
2017,08,09,00,41,17.90
2017,08,09,00,42,18.00
2017,08,09,00,43,18.10
2017,08,09,00,44,18.20
2017,08,09,00,45,18.30
2017,08,09,00,46,18.40
2017,08,09,00,47,18.50
2017,08,09,00,48,18.50
2017,08,09,00,49,18.60
2017,08,09,00,50,18.60
2017,08,09,00,51,18.60
2017,08,09,00,52,18.70
2017,08,09,00,53,18.70
2017,08,09,00,54,18.70
2017,08,09,00,55,18.80
2017,08,09,00,56,18.80
2017,08,09,00,57,18.80
2017,08,09,00,58,18.80
2017,08,09,00,59,18.90
2017,08,09,01,00,18.90
2017,08,09,01,01,18.90
2017,08,09,01,02,18.90
2017,08,09,01,03,18.90
2017,08,09,01,04,18.90
2017,08,09,01,05,18.90
2017,08,09,01,06,18.90
2017,08,09,01,07,18.90
2017,08,09,01,08,18.80
2017,08,09,01,09,18.80
2017,08,09,01,10,18.80
2017,08,09,01,11,18.80
2017,08,09,01,12,18.80
2017,08,09,01,13,18.80
2017,08,09,01,14,18.80
2017,08,09,01,15,18.80
2017,08,09,01,16,18.70
2017,08,09,01,17,18.70
2017,08,09,01,18,18.70
2017,08,09,01,19,18.70
2017,08,09,01,20,18.70
2017,08,09,01,21,18.70
2017,08,09,01,22,18.70
2017,08,09,01,23,18.80
2017,08,09,01,24,18.80
2017,08,09,01,25,18.80
2017,08,09,01,26,18.80
2017,08,09,01,27,18.80
2017,08,09,01,28,18.80
2017,08,09,01,29,18.70
2017,08,09,01,30,18.70
2017,08,09,01,31,18.70
2017,08,09,01,32,18.70
2017,08,09,01,33,18.70
2017,08,09,01,34,18.70
2017,08,09,01,35,18.70
2017,08,09,01,36,18.70
2017,08,09,01,37,18.60
2017,08,09,01,38,18.60
2017,08,09,01,39,18.60
2017,08,09,01,40,18.60
2017,08,09,01,41,18.60
2017,08,09,01,42,18.60
2017,08,09,01,43,18.60
2017,08,09,01,44,18.60
2017,08,09,01,45,18.60
2017,08,09,01,46,18.70
2017,08,09,01,47,18.60
2017,08,09,01,48,18.60
2017,08,09,01,49,18.60
2017,08,09,01,50,18.60
2017,08,09,01,51,18.50
2017,08,09,01,52,18.50
2017,08,09,01,53,18.40
2017,08,09,01,54,18.30
2017,08,09,01,55,18.30
2017,08,09,01,56,18.30
2017,08,09,01,57,18.30
2017,08,09,01,58,18.20
2017,08,09,01,59,18.20
2017,08,09,02,00,18.20
2017,08,09,02,01,18.30
2017,08,09,02,02,18.30
2017,08,09,02,03,18.40
2017,08,09,02,04,18.40
2017,08,09,02,05,18.40
2017,08,09,02,06,18.40
2017,08,09,02,07,18.30
2017,08,09,02,08,18.30
2017,08,09,02,09,18.20
2017,08,09,02,10,18.20
2017,08,09,02,11,18.10
2017,08,09,02,12,18.00
2017,08,09,02,13,17.90
2017,08,09,02,14,17.90
2017,08,09,02,15,17.80
2017,08,09,02,16,17.80
2017,08,09,02,17,17.70
2017,08,09,02,18,17.70
2017,08,09,02,19,17.70
2017,08,09,02,20,17.60
2017,08,09,02,21,17.60
2017,08,09,02,22,17.50
2017,08,09,02,23,17.40
2017,08,09,02,24,17.40
2017,08,09,02,25,17.30
2017,08,09,02,26,17.30
2017,08,09,02,27,17.20
2017,08,09,02,28,17.20
2017,08,09,02,29,17.10
2017,08,09,02,30,17.10
2017,08,09,02,31,17.10
2017,08,09,02,32,17.00
2017,08,09,02,33,16.90
2017,08,09,02,34,16.90
2017,08,09,02,35,16.90
2017,08,09,02,36,16.80
2017,08,09,02,37,16.80
2017,08,09,02,38,16.80
2017,08,09,02,39,16.80
2017,08,09,02,40,16.80
2017,08,09,02,41,16.80
2017,08,09,02,42,16.80
2017,08,09,02,43,16.80
2017,08,09,02,44,16.80
2017,08,09,02,45,16.80
2017,08,09,02,46,16.80
2017,08,09,02,47,16.80
2017,08,09,02,48,16.80
2017,08,09,02,49,16.70
2017,08,09,02,50,16.70
2017,08,09,02,51,16.70
2017,08,09,02,52,16.70
2017,08,09,02,53,16.70
2017,08,09,02,54,16.70
2017,08,09,02,55,16.70
2017,08,09,02,56,16.60
2017,08,09,02,57,16.60
2017,08,09,02,58,16.60
2017,08,09,02,59,16.50
2017,08,09,03,00,16.50
2017,08,09,03,01,16.50
2017,08,09,03,02,16.50
2017,08,09,03,03,16.50
2017,08,09,03,04,16.50
2017,08,09,03,05,16.40
2017,08,09,03,06,16.40
2017,08,09,03,07,16.40
2017,08,09,03,08,16.40
2017,08,09,03,09,16.40
2017,08,09,03,10,16.40
2017,08,09,03,11,16.40
2017,08,09,03,12,16.30
2017,08,09,03,13,16.30
2017,08,09,03,14,16.30
2017,08,09,03,15,16.30
2017,08,09,03,16,16.30
2017,08,09,03,17,16.40
2017,08,09,03,18,16.40
2017,08,09,03,19,16.40
2017,08,09,03,20,16.40
2017,08,09,03,21,16.40
2017,08,09,03,22,16.40
2017,08,09,03,23,16.40
2017,08,09,03,24,16.40
2017,08,09,03,25,16.40
2017,08,09,03,26,16.40
2017,08,09,03,27,16.40
2017,08,09,03,28,16.40
2017,08,09,03,29,16.40
2017,08,09,03,30,16.40
2017,08,09,03,31,16.40
2017,08,09,03,32,16.40
2017,08,09,03,33,16.40
2017,08,09,03,34,16.30
2017,08,09,03,35,16.30
2017,08,09,03,36,16.30
2017,08,09,03,37,16.30
2017,08,09,03,38,16.30
2017,08,09,03,39,16.30
2017,08,09,03,40,16.30
2017,08,09,03,41,16.30
2017,08,09,03,42,16.30
2017,08,09,03,43,16.30
2017,08,09,03,44,16.30
2017,08,09,03,45,16.30
2017,08,09,03,46,16.30
2017,08,09,03,47,16.30
2017,08,09,03,48,16.30
2017,08,09,03,49,16.30
2017,08,09,03,50,16.30
2017,08,09,03,51,16.30
2017,08,09,03,52,16.30
2017,08,09,03,53,16.30
2017,08,09,03,54,16.30
2017,08,09,03,55,16.30
2017,08,09,03,56,16.30
2017,08,09,03,57,16.30
2017,08,09,03,58,16.30
2017,08,09,03,59,16.30
2017,08,09,04,00,16.30
2017,08,09,04,01,16.30
2017,08,09,04,02,16.30
2017,08,09,04,03,16.30
2017,08,09,04,04,16.30
2017,08,09,04,05,16.30
2017,08,09,04,06,16.30
2017,08,09,04,07,16.30
2017,08,09,04,08,16.30
2017,08,09,04,09,16.30
2017,08,09,04,10,16.30
2017,08,09,04,11,16.20
2017,08,09,04,12,16.20
2017,08,09,04,13,16.20
2017,08,09,04,14,16.20
2017,08,09,04,15,16.20
2017,08,09,04,16,16.20
2017,08,09,04,17,16.20
2017,08,09,04,18,16.20
2017,08,09,04,19,16.20
2017,08,09,04,20,16.30
2017,08,09,04,21,16.30
2017,08,09,04,22,16.30
2017,08,09,04,23,16.30
2017,08,09,04,24,16.30
2017,08,09,04,25,16.30
2017,08,09,04,26,16.30
2017,08,09,04,27,16.30
2017,08,09,04,28,16.30
2017,08,09,04,29,16.30
2017,08,09,04,30,16.30
2017,08,09,04,31,16.30
2017,08,09,04,32,16.30
2017,08,09,04,33,16.20
2017,08,09,04,34,16.20
2017,08,09,04,35,16.20
2017,08,09,04,36,16.20
2017,08,09,04,37,16.20
2017,08,09,04,38,16.20
2017,08,09,04,39,16.20
2017,08,09,04,40,16.30
2017,08,09,04,41,16.30
2017,08,09,04,42,16.30
2017,08,09,04,43,16.30
2017,08,09,04,44,16.30
2017,08,09,04,45,16.30
2017,08,09,04,46,16.30
2017,08,09,04,47,16.30
2017,08,09,04,48,16.30
2017,08,09,04,49,16.30
2017,08,09,04,50,16.30
2017,08,09,04,51,16.30
2017,08,09,04,52,16.20
2017,08,09,04,53,16.20
2017,08,09,04,54,16.20
2017,08,09,04,55,16.20
2017,08,09,04,56,16.20
2017,08,09,04,57,16.10
2017,08,09,04,58,16.10
2017,08,09,04,59,16.10
2017,08,09,05,00,16.10
2017,08,09,05,01,16.00
2017,08,09,05,02,16.00
2017,08,09,05,03,16.00
2017,08,09,05,04,15.90
2017,08,09,05,05,15.90
2017,08,09,05,06,15.90
2017,08,09,05,07,15.90
2017,08,09,05,08,15.80
2017,08,09,05,09,15.80
2017,08,09,05,10,15.80
2017,08,09,05,11,15.80
2017,08,09,05,12,15.80
2017,08,09,05,13,15.70
2017,08,09,05,14,15.70
2017,08,09,05,15,15.70
2017,08,09,05,16,15.70
2017,08,09,05,17,15.70
2017,08,09,05,18,15.60
2017,08,09,05,19,15.60
2017,08,09,05,20,15.60
2017,08,09,05,21,15.60
2017,08,09,05,22,15.60
2017,08,09,05,23,15.50
2017,08,09,05,24,15.50
2017,08,09,05,25,15.60
2017,08,09,05,26,15.60
2017,08,09,05,27,15.60
2017,08,09,05,28,15.60
2017,08,09,05,29,15.70
2017,08,09,05,30,15.70
2017,08,09,05,31,15.70
2017,08,09,05,32,15.70
2017,08,09,05,33,15.70
2017,08,09,05,34,15.80
2017,08,09,05,35,15.80
2017,08,09,05,36,15.80
2017,08,09,05,37,15.80
2017,08,09,05,38,15.90
2017,08,09,05,39,15.90
2017,08,09,05,40,15.90
2017,08,09,05,41,15.90
2017,08,09,05,42,15.90
2017,08,09,05,43,15.90
2017,08,09,05,44,15.90
2017,08,09,05,45,15.90
2017,08,09,05,46,15.80
2017,08,09,05,47,15.80
2017,08,09,05,48,15.80
2017,08,09,05,49,15.80
2017,08,09,05,50,15.80
2017,08,09,05,51,15.70
2017,08,09,05,52,15.70
2017,08,09,05,53,15.70
2017,08,09,05,54,15.70
2017,08,09,05,55,15.70
2017,08,09,05,56,15.70
2017,08,09,05,57,15.70
2017,08,09,05,58,15.70
2017,08,09,05,59,15.70
2017,08,09,06,00,15.60
2017,08,09,06,01,15.60
2017,08,09,06,02,15.60
2017,08,09,06,03,15.60
2017,08,09,06,04,15.60
2017,08,09,06,05,15.50
2017,08,09,06,06,15.50
2017,08,09,06,07,15.50
2017,08,09,06,08,15.40
2017,08,09,06,09,15.40
2017,08,09,06,10,15.40
2017,08,09,06,11,15.30
2017,08,09,06,12,15.30
2017,08,09,06,13,15.30
2017,08,09,06,14,15.30
2017,08,09,06,15,15.30
2017,08,09,06,16,15.20
2017,08,09,06,17,15.20
2017,08,09,06,18,15.20
2017,08,09,06,19,15.10
2017,08,09,06,20,15.10
2017,08,09,06,21,15.10
2017,08,09,06,22,15.10
2017,08,09,06,23,15.10
2017,08,09,06,24,15.00
2017,08,09,06,25,15.00
2017,08,09,06,26,15.00
2017,08,09,06,27,14.90
2017,08,09,06,28,14.90
2017,08,09,06,29,14.90
2017,08,09,06,30,14.90
2017,08,09,06,31,14.90
2017,08,09,06,32,14.90
2017,08,09,06,33,14.80
2017,08,09,06,34,14.80
2017,08,09,06,35,14.80
2017,08,09,06,36,14.80
2017,08,09,06,37,14.80
2017,08,09,06,38,14.80
2017,08,09,06,39,14.80
2017,08,09,06,40,14.80
2017,08,09,06,41,14.80
2017,08,09,06,42,14.80
2017,08,09,06,43,14.80
2017,08,09,06,44,14.80
2017,08,09,06,45,14.80
2017,08,09,06,46,14.80
2017,08,09,06,47,14.80
2017,08,09,06,48,14.80
2017,08,09,06,49,14.80
2017,08,09,06,50,14.80
2017,08,09,06,51,14.80
2017,08,09,06,52,14.80
2017,08,09,06,53,14.80
2017,08,09,06,54,14.80
2017,08,09,06,55,14.80
2017,08,09,06,56,14.80
2017,08,09,06,57,14.80
2017,08,09,06,58,14.80
2017,08,09,06,59,14.80
2017,08,09,07,00,14.80
2017,08,09,07,01,14.80
2017,08,09,07,02,14.80
2017,08,09,07,03,14.80
2017,08,09,07,04,14.80
2017,08,09,07,05,14.80
2017,08,09,07,06,14.80
2017,08,09,07,07,14.80
2017,08,09,07,08,14.80
2017,08,09,07,09,14.80
2017,08,09,07,10,14.80
2017,08,09,07,11,14.80
2017,08,09,07,12,14.80
2017,08,09,07,13,14.80
2017,08,09,07,14,14.80
2017,08,09,07,15,14.80
2017,08,09,07,16,14.80
2017,08,09,07,17,14.80
2017,08,09,07,18,14.80
2017,08,09,07,19,14.80
2017,08,09,07,20,14.80
2017,08,09,07,21,14.90
2017,08,09,07,22,14.90
2017,08,09,07,23,14.90
2017,08,09,07,24,14.90
2017,08,09,07,25,14.90
2017,08,09,07,26,14.90
2017,08,09,07,27,14.90
2017,08,09,07,28,14.90
2017,08,09,07,29,15.00
2017,08,09,07,30,15.00
2017,08,09,07,31,15.00
2017,08,09,07,32,15.00
2017,08,09,07,33,15.00
2017,08,09,07,34,15.10
2017,08,09,07,35,15.10
2017,08,09,07,36,15.10
2017,08,09,07,37,15.10
2017,08,09,07,38,15.10
2017,08,09,07,39,15.10
2017,08,09,07,40,15.10
2017,08,09,07,41,15.10
2017,08,09,07,42,15.10
2017,08,09,07,43,15.20
2017,08,09,07,44,15.20
2017,08,09,07,45,15.20
2017,08,09,07,46,15.20
2017,08,09,07,47,15.20
2017,08,09,07,48,15.20
2017,08,09,07,49,15.20
2017,08,09,07,50,15.20
2017,08,09,07,51,15.20
2017,08,09,07,52,15.30
2017,08,09,07,53,15.30
2017,08,09,07,54,15.30
2017,08,09,07,55,15.30
2017,08,09,07,56,15.30
2017,08,09,07,57,15.40
2017,08,09,07,58,15.40
2017,08,09,07,59,15.40
2017,08,09,08,00,15.40
2017,08,09,08,01,15.50
2017,08,09,08,02,15.50
2017,08,09,08,03,15.50
2017,08,09,08,04,15.60
2017,08,09,08,05,15.60
2017,08,09,08,06,15.60
2017,08,09,08,07,15.60
2017,08,09,08,08,15.60
2017,08,09,08,09,15.60
2017,08,09,08,10,15.60
2017,08,09,08,11,15.60
2017,08,09,08,12,15.70
2017,08,09,08,13,15.70
2017,08,09,08,14,15.70
2017,08,09,08,15,15.70
2017,08,09,08,16,15.70
2017,08,09,08,17,15.80
2017,08,09,08,18,15.80
2017,08,09,08,19,15.80
2017,08,09,08,20,15.80
2017,08,09,08,21,15.80
2017,08,09,08,22,15.90
2017,08,09,08,23,15.90
2017,08,09,08,24,15.90
2017,08,09,08,25,16.00
2017,08,09,08,26,16.00
2017,08,09,08,27,16.00
2017,08,09,08,28,16.00
2017,08,09,08,29,16.10
2017,08,09,08,30,16.10
2017,08,09,08,31,16.10
2017,08,09,08,32,16.10
2017,08,09,08,33,16.10
2017,08,09,08,34,16.10
2017,08,09,08,35,16.10
2017,08,09,08,36,16.10
2017,08,09,08,37,16.10
2017,08,09,08,38,16.20
2017,08,09,08,39,16.20
2017,08,09,08,40,16.20
2017,08,09,08,41,16.20
2017,08,09,08,42,16.20
2017,08,09,08,43,16.20
2017,08,09,08,44,16.20
2017,08,09,08,45,16.30
2017,08,09,08,46,16.30
2017,08,09,08,47,16.30
2017,08,09,08,48,16.30
2017,08,09,08,49,16.30
2017,08,09,08,50,16.30
2017,08,09,08,51,16.30
2017,08,09,08,52,16.30
2017,08,09,08,53,16.40
2017,08,09,08,54,16.40
2017,08,09,08,55,16.40
2017,08,09,08,56,16.40
2017,08,09,08,57,16.40
2017,08,09,08,58,16.50
2017,08,09,08,59,16.50
2017,08,09,09,00,16.50
2017,08,09,09,01,16.50
2017,08,09,09,02,16.60
2017,08,09,09,03,16.60
2017,08,09,09,04,16.60
2017,08,09,09,05,16.60
2017,08,09,09,06,16.70
2017,08,09,09,07,16.70
2017,08,09,09,08,16.70
2017,08,09,09,09,16.70
2017,08,09,09,10,16.80
2017,08,09,09,11,16.80
2017,08,09,09,12,16.80
2017,08,09,09,13,16.90
2017,08,09,09,14,16.90
2017,08,09,09,15,17.00
2017,08,09,09,16,17.00
2017,08,09,09,17,17.10
2017,08,09,09,18,17.10
2017,08,09,09,19,17.10
2017,08,09,09,20,17.10
2017,08,09,09,21,17.10
2017,08,09,09,22,17.10
2017,08,09,09,23,17.10
2017,08,09,09,24,17.10
2017,08,09,09,25,17.10
2017,08,09,09,26,17.20
2017,08,09,09,27,17.20
2017,08,09,09,28,17.20
2017,08,09,09,29,17.10
2017,08,09,09,30,17.10
2017,08,09,09,31,17.10
2017,08,09,09,32,17.10
2017,08,09,09,33,17.10
2017,08,09,09,34,17.10
2017,08,09,09,35,17.10
2017,08,09,09,36,17.10
2017,08,09,09,37,17.10
2017,08,09,09,38,17.10
2017,08,09,09,39,17.10
2017,08,09,09,40,17.20
2017,08,09,09,41,17.20
2017,08,09,09,42,17.20
2017,08,09,09,43,17.30
2017,08,09,09,44,17.30
2017,08,09,09,45,17.30
2017,08,09,09,46,17.40
2017,08,09,09,47,17.40
2017,08,09,09,48,17.40
2017,08,09,09,49,17.40
2017,08,09,09,50,17.50
2017,08,09,09,51,17.50
2017,08,09,09,52,17.50
2017,08,09,09,53,17.60
2017,08,09,09,54,17.60
2017,08,09,09,55,17.60
2017,08,09,09,56,17.70
2017,08,09,09,57,17.70
2017,08,09,09,58,17.70
2017,08,09,09,59,17.80
2017,08,09,10,00,17.80
2017,08,09,10,01,17.90
2017,08,09,10,02,17.90
2017,08,09,10,03,17.90
2017,08,09,10,04,18.00
2017,08,09,10,05,18.00
2017,08,09,10,06,18.10
2017,08,09,10,07,18.10
2017,08,09,10,08,18.10
2017,08,09,10,09,18.20
2017,08,09,10,10,18.20
2017,08,09,10,11,18.30
2017,08,09,10,12,18.30
2017,08,09,10,13,18.40
2017,08,09,10,14,18.40
2017,08,09,10,15,18.40
2017,08,09,10,16,18.50
2017,08,09,10,17,18.50
2017,08,09,10,18,18.50
2017,08,09,10,19,18.60
2017,08,09,10,20,18.60
2017,08,09,10,21,18.70
2017,08,09,10,22,18.70
2017,08,09,10,23,18.80
2017,08,09,10,24,18.80
2017,08,09,10,25,18.80
2017,08,09,10,26,18.80
2017,08,09,10,27,18.80
2017,08,09,10,28,18.80
2017,08,09,10,29,18.80
2017,08,09,10,30,18.80
2017,08,09,10,31,18.80
2017,08,09,10,32,18.90
2017,08,09,10,33,18.90
2017,08,09,10,34,18.90
2017,08,09,10,35,18.90
2017,08,09,10,36,19.00
2017,08,09,10,37,19.00
2017,08,09,10,38,19.00
2017,08,09,10,39,19.10
2017,08,09,10,40,19.10
2017,08,09,10,41,19.10
2017,08,09,10,42,19.10
2017,08,09,10,43,19.10
2017,08,09,10,44,19.20
2017,08,09,10,45,19.20
2017,08,09,10,46,19.30
2017,08,09,10,47,19.30
2017,08,09,10,48,19.30
2017,08,09,10,49,19.40
2017,08,09,10,50,19.40
2017,08,09,10,51,19.40
2017,08,09,10,52,19.50
2017,08,09,10,53,19.50
2017,08,09,10,54,19.60
2017,08,09,10,55,19.60
2017,08,09,10,56,19.70
2017,08,09,10,57,19.70
2017,08,09,10,58,19.70
2017,08,09,10,59,19.80
2017,08,09,11,00,19.80
2017,08,09,11,01,19.80
2017,08,09,11,02,19.90
2017,08,09,11,03,19.90
2017,08,09,11,04,20.00
2017,08,09,11,05,20.00
2017,08,09,11,06,20.10
2017,08,09,11,07,20.10
2017,08,09,11,08,20.10
2017,08,09,11,09,20.10
2017,08,09,11,10,20.10
2017,08,09,11,11,20.00
2017,08,09,11,12,20.10
2017,08,09,11,13,20.10
2017,08,09,11,14,20.10
2017,08,09,11,15,20.20
2017,08,09,11,16,20.20
2017,08,09,11,17,20.20
2017,08,09,11,18,20.20
2017,08,09,11,19,20.20
2017,08,09,11,20,20.20
2017,08,09,11,21,20.20
2017,08,09,11,22,20.20
2017,08,09,11,23,20.20
2017,08,09,11,24,20.30
2017,08,09,11,25,20.30
2017,08,09,11,26,20.30
2017,08,09,11,27,20.40
2017,08,09,11,28,20.40
2017,08,09,11,29,20.40
2017,08,09,11,30,20.40
2017,08,09,11,31,20.40
2017,08,09,11,32,20.40
2017,08,09,11,33,20.30
2017,08,09,11,34,20.30
2017,08,09,11,35,20.40
2017,08,09,11,36,20.40
2017,08,09,11,37,20.50
2017,08,09,11,38,20.50
2017,08,09,11,39,20.60
2017,08,09,11,40,20.60
2017,08,09,11,41,20.70
2017,08,09,11,42,20.80
2017,08,09,11,43,20.90
2017,08,09,11,44,20.90
2017,08,09,11,45,21.00
2017,08,09,11,46,21.10
2017,08,09,11,47,21.10
2017,08,09,11,48,21.20
2017,08,09,11,49,21.20
2017,08,09,11,50,21.30
2017,08,09,11,51,21.30
2017,08,09,11,52,21.40
2017,08,09,11,53,21.40
2017,08,09,11,54,21.30
2017,08,09,11,55,21.30
2017,08,09,11,56,21.20
2017,08,09,11,57,21.20
2017,08,09,11,58,21.20
2017,08,09,11,59,21.20
2017,08,09,12,00,21.20
2017,08,09,12,01,21.20
2017,08,09,12,02,21.20
2017,08,09,12,03,21.10
2017,08,09,12,04,21.10
2017,08,09,12,05,21.00
2017,08,09,12,06,20.90
2017,08,09,12,07,20.90
2017,08,09,12,08,20.90
2017,08,09,12,09,20.90
2017,08,09,12,10,20.90
2017,08,09,12,11,21.00
2017,08,09,12,12,21.00
2017,08,09,12,13,21.00
2017,08,09,12,14,21.00
2017,08,09,12,15,21.00
2017,08,09,12,16,21.10
2017,08,09,12,17,21.10
2017,08,09,12,18,21.20
2017,08,09,12,19,21.20
2017,08,09,12,20,21.30
2017,08,09,12,21,21.30
2017,08,09,12,22,21.40
2017,08,09,12,23,21.50
2017,08,09,12,24,21.60
2017,08,09,12,25,21.60
2017,08,09,12,26,21.70
2017,08,09,12,27,21.70
2017,08,09,12,28,21.80
2017,08,09,12,29,21.80
2017,08,09,12,30,21.90
2017,08,09,12,31,21.90
2017,08,09,12,32,22.00
2017,08,09,12,33,22.00
2017,08,09,12,34,22.10
2017,08,09,12,35,22.10
2017,08,09,12,36,22.20
2017,08,09,12,37,22.30
2017,08,09,12,38,22.30
2017,08,09,12,39,22.40
2017,08,09,12,40,22.50
2017,08,09,12,41,22.60
2017,08,09,12,42,22.70
2017,08,09,12,43,22.80
2017,08,09,12,44,22.90
2017,08,09,12,45,23.00
2017,08,09,12,46,23.10
2017,08,09,12,47,23.20
2017,08,09,12,48,23.30
2017,08,09,12,49,23.30
2017,08,09,12,50,23.40
2017,08,09,12,51,23.40
2017,08,09,12,52,23.50
2017,08,09,12,53,23.60
2017,08,09,12,54,23.60
2017,08,09,12,55,23.70
2017,08,09,12,56,23.70
2017,08,09,12,57,23.80
2017,08,09,12,58,23.80
2017,08,09,12,59,23.80
2017,08,09,13,00,23.90
2017,08,09,13,01,24.00
2017,08,09,13,02,24.10
2017,08,09,13,03,24.20
2017,08,09,13,04,24.20
2017,08,09,13,05,24.30
2017,08,09,13,06,24.40
2017,08,09,13,07,24.40
2017,08,09,13,08,24.40
2017,08,09,13,09,24.50
2017,08,09,13,10,24.60
2017,08,09,13,11,24.60
2017,08,09,13,12,24.60
2017,08,09,13,13,24.60
2017,08,09,13,14,24.60
2017,08,09,13,15,24.70
2017,08,09,13,16,24.70
2017,08,09,13,17,24.80
2017,08,09,13,18,24.80
2017,08,09,13,19,24.80
2017,08,09,13,20,24.90
2017,08,09,13,21,24.90
2017,08,09,13,22,25.00
2017,08,09,13,23,25.00
2017,08,09,13,24,25.10
2017,08,09,13,25,25.10
2017,08,09,13,26,25.20
2017,08,09,13,27,25.30
2017,08,09,13,28,25.40
2017,08,09,13,29,25.60
2017,08,09,13,30,25.70
2017,08,09,13,31,25.70
2017,08,09,13,32,25.80
2017,08,09,13,33,25.80
2017,08,09,13,34,25.80
2017,08,09,13,35,25.80
2017,08,09,13,36,25.80
2017,08,09,13,37,25.80
2017,08,09,13,38,25.80
2017,08,09,13,39,25.80
2017,08,09,13,40,25.80
2017,08,09,13,41,25.80
2017,08,09,13,42,25.70
2017,08,09,13,43,25.70
2017,08,09,13,44,25.60
2017,08,09,13,45,25.60
2017,08,09,13,46,25.60
2017,08,09,13,47,25.50
2017,08,09,13,48,25.50
2017,08,09,13,49,25.40
2017,08,09,13,50,25.40
2017,08,09,13,51,25.40
2017,08,09,13,52,25.40
2017,08,09,13,53,25.40
2017,08,09,13,54,25.40
2017,08,09,13,55,25.50
2017,08,09,13,56,25.60
2017,08,09,13,57,25.60
2017,08,09,13,58,25.70
2017,08,09,13,59,25.70
2017,08,09,14,00,25.70
2017,08,09,14,01,25.70
2017,08,09,14,02,25.60
2017,08,09,14,03,25.60
2017,08,09,14,04,25.50
2017,08,09,14,05,25.50
2017,08,09,14,06,25.40
2017,08,09,14,07,25.40
2017,08,09,14,08,25.30
2017,08,09,14,09,25.30
2017,08,09,14,10,25.30
2017,08,09,14,11,25.20
2017,08,09,14,12,25.20
2017,08,09,14,13,25.20
2017,08,09,14,14,25.20
2017,08,09,14,15,25.10
2017,08,09,14,16,25.10
2017,08,09,14,17,25.00
2017,08,09,14,18,25.00
2017,08,09,14,19,25.00
2017,08,09,14,20,25.00
2017,08,09,14,21,25.00
2017,08,09,14,22,25.00
2017,08,09,14,23,25.00
2017,08,09,14,24,25.10
2017,08,09,14,25,25.10
2017,08,09,14,26,25.20
2017,08,09,14,27,25.30
2017,08,09,14,28,25.40
2017,08,09,14,29,25.40
2017,08,09,14,30,25.50
2017,08,09,14,31,25.60
2017,08,09,14,32,25.60
2017,08,09,14,33,25.60
2017,08,09,14,34,25.60
2017,08,09,14,35,25.60
2017,08,09,14,36,25.70
2017,08,09,14,37,25.70
2017,08,09,14,38,25.80
2017,08,09,14,39,25.90
2017,08,09,14,40,26.00
2017,08,09,14,41,26.10
2017,08,09,14,42,26.20
2017,08,09,14,43,26.30
2017,08,09,14,44,26.30
2017,08,09,14,45,26.30
2017,08,09,14,46,26.40
2017,08,09,14,47,26.40
2017,08,09,14,48,26.40
2017,08,09,14,49,26.40
2017,08,09,14,50,26.40
2017,08,09,14,51,26.40
2017,08,09,14,52,26.40
2017,08,09,14,53,26.50
2017,08,09,14,54,26.50
2017,08,09,14,55,26.60
2017,08,09,14,56,26.60
2017,08,09,14,57,26.60
2017,08,09,14,58,26.70
2017,08,09,14,59,26.70
2017,08,09,15,00,26.80
2017,08,09,15,01,26.80
2017,08,09,15,02,26.80
2017,08,09,15,03,26.80
2017,08,09,15,04,26.70
2017,08,09,15,05,26.70
2017,08,09,15,06,26.70
2017,08,09,15,07,26.70
2017,08,09,15,08,26.80
2017,08,09,15,09,26.80
2017,08,09,15,10,26.80
2017,08,09,15,11,26.80
2017,08,09,15,12,26.90
2017,08,09,15,13,26.90
2017,08,09,15,14,26.90
2017,08,09,15,15,26.90
2017,08,09,15,16,27.00
2017,08,09,15,17,27.00
2017,08,09,15,18,27.00
2017,08,09,15,19,27.00
2017,08,09,15,20,27.00
2017,08,09,15,21,26.90
2017,08,09,15,22,26.90
2017,08,09,15,23,26.90
2017,08,09,15,24,26.90
2017,08,09,15,25,26.80
2017,08,09,15,26,26.80
2017,08,09,15,27,26.70
2017,08,09,15,28,26.70
2017,08,09,15,29,26.70
2017,08,09,15,30,26.70
2017,08,09,15,31,26.70
2017,08,09,15,32,26.70
2017,08,09,15,33,26.70
2017,08,09,15,34,26.70
2017,08,09,15,35,26.70
2017,08,09,15,36,26.60
2017,08,09,15,37,26.70
2017,08,09,15,38,26.70
2017,08,09,15,39,26.70
2017,08,09,15,40,26.80
2017,08,09,15,41,26.80
2017,08,09,15,42,26.80
2017,08,09,15,43,26.90
2017,08,09,15,44,26.90
2017,08,09,15,45,26.90
2017,08,09,15,46,26.90
2017,08,09,15,47,26.80
2017,08,09,15,48,26.80
2017,08,09,15,49,26.80
2017,08,09,15,50,26.80
2017,08,09,15,51,26.80
2017,08,09,15,52,26.80
2017,08,09,15,53,26.90
2017,08,09,15,54,26.90
2017,08,09,15,55,27.00
2017,08,09,15,56,27.00
2017,08,09,15,57,27.00
2017,08,09,15,58,27.10
2017,08,09,15,59,27.10
2017,08,09,16,00,27.10
2017,08,09,16,01,27.20
2017,08,09,16,02,27.20
2017,08,09,16,03,27.20
2017,08,09,16,04,27.20
2017,08,09,16,05,27.30
2017,08,09,16,06,27.30
2017,08,09,16,07,27.30
2017,08,09,16,08,27.20
2017,08,09,16,09,27.20
2017,08,09,16,10,27.20
2017,08,09,16,11,27.20
2017,08,09,16,12,27.20
2017,08,09,16,13,27.30
2017,08,09,16,14,27.30
2017,08,09,16,15,27.30
2017,08,09,16,16,27.20
2017,08,09,16,17,27.20
2017,08,09,16,18,27.20
2017,08,09,16,19,27.20
2017,08,09,16,20,27.20
2017,08,09,16,21,27.20
2017,08,09,16,22,27.30
2017,08,09,16,23,27.30
2017,08,09,16,24,27.30
2017,08,09,16,25,27.30
2017,08,09,16,26,27.30
2017,08,09,16,27,27.30
2017,08,09,16,28,27.40
2017,08,09,16,29,27.40
2017,08,09,16,30,27.40
2017,08,09,16,31,27.40
2017,08,09,16,32,27.40
2017,08,09,16,33,27.50
2017,08,09,16,34,27.50
2017,08,09,16,35,27.50
2017,08,09,16,36,27.60
2017,08,09,16,37,27.60
2017,08,09,16,38,27.60
2017,08,09,16,39,27.60
2017,08,09,16,40,27.60
2017,08,09,16,41,27.60
2017,08,09,16,42,27.70
2017,08,09,16,43,27.70
2017,08,09,16,44,27.80
2017,08,09,16,45,27.80
2017,08,09,16,46,27.80
2017,08,09,16,47,27.80
2017,08,09,16,48,27.80
2017,08,09,16,49,27.90
2017,08,09,16,50,27.90
2017,08,09,16,51,27.90
2017,08,09,16,52,28.00
2017,08,09,16,53,28.00
2017,08,09,16,54,28.10
2017,08,09,16,55,28.10
2017,08,09,16,56,28.20
2017,08,09,16,57,28.20
2017,08,09,16,58,28.20
2017,08,09,16,59,28.20
2017,08,09,17,00,28.10
2017,08,09,17,01,28.10
2017,08,09,17,02,28.10
2017,08,09,17,03,28.00
2017,08,09,17,04,28.00
2017,08,09,17,05,27.90
2017,08,09,17,06,27.90
2017,08,09,17,07,27.90
2017,08,09,17,08,27.90
2017,08,09,17,09,27.90
2017,08,09,17,10,27.90
2017,08,09,17,11,27.80
2017,08,09,17,12,27.90
2017,08,09,17,13,27.90
2017,08,09,17,14,27.80
2017,08,09,17,15,27.90
2017,08,09,17,16,27.90
2017,08,09,17,17,27.90
2017,08,09,17,18,27.90
2017,08,09,17,19,27.90